Monticello, KY

12:20 AM CDT on August 26, 2016 (GMT -0500)
Wayne County

Weather History for KEKQ - September, 2013

Change the Weather History Date:

Monday, September 23, 2013

  Actual Average Record
Temperature  
Mean Temperature 62 °F -  
Max Temperature 77 °F 76 °F 95 °F (2007)
Min Temperature 46 °F 53 °F 36 °F (1974)
Degree Days  
Heating Degree Days 4    
Growing Degree Days 12 (Base 50)    
Moisture  
Dew Point 55 °F    
Average Humidity 81    
Maximum Humidity 100    
Minimum Humidity 55    
Precipitation  
Precipitation 0.00 in - - ()
Sea Level Pressure  
Sea Level Pressure 30.04 in    
Wind  
Wind Speed 2 mph (NE)    
Max Wind Speed 8 mph    
Max Gust Speed -    
Visibility 10 miles    
Events      
Averages and records for this station are not official NWS values.
T = Trace of Precipitation, MM = Missing Value Source: NWS Daily Summary

Daily Weather History Graph

Daily Weather History Graph

Search for Another Location

Airport or City:

Trip Planner

Search our weather history database for the weather conditions in past years. The results will help you decide how hot, cold, wet, or windy it might be!

Date:

Astronomy

Sep. 23, 2013 Rise Set
Actual Time 6:28 AM CDT 6:34 PM CDT
Civil Twilight 6:02 AM CDT 7:00 PM CDT
Nautical Twilight 5:32 AM CDT 7:30 PM CDT
Astronomical Twilight 5:01 AM CDT 8:00 PM CDT
Moon 9:13 PM CDT (9/23) 10:39 AM CDT (9/23)
Length of Visible Light 12h 57m
Length of Day
12h 06m
Waning Gibbous, 81% of the Moon is Illuminated
Sep 23
Waning Gibbous
Sep 26
Last Quarter
Oct 4
New
Oct 11
First Quarter
Oct 18
Full

Hourly Weather History & Observations

Time (CDT) Temp. Dew Point Humidity Pressure Visibility Wind Dir Wind Speed Gust Speed Precip Events Conditions
12:56 AM 52.0 °F 50.0 °F 93% 30.01 in 10.0 mi Calm Calm - N/A   Clear
1:56 AM 48.9 °F 48.9 °F 100% 30.01 in 10.0 mi Calm Calm - N/A   Clear
2:56 AM 47.8 °F 47.8 °F 100% 30.01 in 10.0 mi Calm Calm - N/A   Clear
3:56 AM 46.9 °F 46.9 °F 100% 30.01 in 9.0 mi Calm Calm - N/A   Clear
4:56 AM 48.9 °F 48.9 °F 100% 30.03 in 10.0 mi Calm Calm - N/A   Clear
5:56 AM 50.9 °F 50.9 °F 100% 30.04 in 10.0 mi NE 5.8 mph - N/A   Clear
6:56 AM 50.0 °F 50.0 °F 100% 30.07 in 5.0 mi Calm Calm - N/A   Clear
7:56 AM 55.9 °F 52.9 °F 89% 30.08 in 10.0 mi NE 4.6 mph - N/A   Clear
8:56 AM 61.0 °F 54.0 °F 78% 30.08 in 10.0 mi Variable 4.6 mph - N/A   Clear
9:56 AM 64.9 °F 54.9 °F 70% 30.08 in 10.0 mi NE 6.9 mph - N/A   Clear
10:56 AM 68.9 °F 55.9 °F 63% 30.08 in 10.0 mi Variable 5.8 mph - N/A   Clear
11:56 AM 70.9 °F 56.8 °F 61% 30.06 in 10.0 mi NE 4.6 mph - N/A   Clear
12:56 PM 73.9 °F 59.0 °F 59% 30.05 in 10.0 mi Variable 4.6 mph - N/A   Clear
1:56 PM 74.8 °F 59.9 °F 60% 30.04 in 10.0 mi Calm Calm - N/A   Scattered Clouds
2:56 PM 77.0 °F 59.9 °F 55% 30.03 in 10.0 mi Variable 4.6 mph - N/A   Clear
3:56 PM 77.0 °F 59.9 °F 55% 30.02 in 10.0 mi North 8.1 mph - N/A   Clear
4:56 PM 75.9 °F 59.9 °F 57% 30.02 in 10.0 mi NE 6.9 mph - N/A   Clear
5:56 PM 73.9 °F 59.9 °F 61% 30.01 in 10.0 mi NNE 3.5 mph - N/A   Clear
6:56 PM 66.9 °F 61.0 °F 81% 30.03 in 10.0 mi Calm Calm - N/A   Scattered Clouds
7:56 PM 61.9 °F 59.9 °F 93% 30.03 in 10.0 mi Calm Calm - N/A   Scattered Clouds
8:56 PM 59.9 °F 59.0 °F 97% 30.04 in 10.0 mi Calm Calm - N/A   Clear
9:56 PM 59.0 °F 56.8 °F 93% 30.05 in 10.0 mi Calm Calm - N/A   Clear
10:56 PM 59.9 °F 57.9 °F 93% 30.05 in 10.0 mi Calm Calm - N/A   Clear
11:56 PM 59.0 °F 56.8 °F 93% 30.05 in 10.0 mi Calm Calm - N/A   Clear